Time,TemperatureF,DewpointF,PressureIn,WindDirection,WindDirectionDegrees,WindSpeedMPH,WindSpeedGustMPH,Humidity,HourlyPrecipIn,Conditions,Clouds,dailyrainin,SolarRadiationWatts/m^2,SoftwareType,DateUTC
2013-02-22 00:00:00,57.8,28.1,29.77,NNW,336,0.0,0.0,32,0.00,,,0.00,0,Wunderground v.1.15,2013-02-22 06:00:00,
2013-02-22 00:05:00,57.4,27.7,29.77,NNW,336,0.0,0.0,32,0.00,,,0.00,0,Wunderground v.1.15,2013-02-22 06:05:00,
2013-02-22 00:10:00,56.9,28.1,29.77,NNW,337,1.0,2.0,33,0.00,,,0.00,0,Wunderground v.1.15,2013-02-22 06:10:00,
2013-02-22 00:20:00,56.4,28.3,29.77,NNW,338,1.0,1.0,34,0.00,,,0.00,0,Wunderground v.1.15,2013-02-22 06:20:00,
2013-02-22 00:30:00,56.0,29.4,29.79,NNW,338,0.0,0.0,36,0.00,,,0.00,0,Wunderground v.1.15,2013-02-22 06:30:00,
2013-02-22 00:35:00,55.8,29.2,29.79,NNW,338,0.0,0.0,36,0.00,,,0.00,0,Wunderground v.1.15,2013-02-22 06:35:00,
2013-02-22 00:40:00,55.5,29.6,29.79,NNW,338,0.0,0.0,37,0.00,,,0.00,0,Wunderground v.1.15,2013-02-22 06:40:00,
2013-02-22 00:45:00,55.3,29.4,29.79,NNW,338,0.0,0.0,37,0.00,,,0.00,0,Wunderground v.1.15,2013-02-22 06:45:00,
2013-02-22 00:50:00,55.0,29.8,29.79,NNW,337,0.0,1.0,38,0.00,,,0.00,0,Wunderground v.1.15,2013-02-22 06:50:00,
2013-02-22 00:55:00,54.6,29.5,29.79,NNW,338,1.0,1.0,38,0.00,,,0.00,0,Wunderground v.1.15,2013-02-22 06:55:00,
2013-02-22 01:00:00,54.2,28.5,29.79,NNW,338,1.0,1.0,37,0.00,,,0.00,0,Wunderground v.1.15,2013-02-22 07:00:00,
2013-02-22 01:05:00,53.9,29.5,29.79,NNW,338,0.0,1.0,39,0.00,,,0.00,0,Wunderground v.1.15,2013-02-22 07:05:00,
2013-02-22 01:10:00,53.7,29.9,29.79,NNW,338,0.0,0.0,40,0.00,,,0.00,0,Wunderground v.1.15,2013-02-22 07:10:00,
2013-02-22 01:20:00,53.4,29.7,29.79,NNW,338,2.0,2.0,40,0.00,,,0.00,0,Wunderground v.1.15,2013-02-22 07:20:00,
2013-02-22 01:25:00,53.3,29.6,29.79,NNW,337,3.0,3.0,40,0.00,,,0.00,0,Wunderground v.1.15,2013-02-22 07:25:00,
2013-02-22 01:30:00,53.2,28.9,29.79,NNW,337,3.0,3.0,39,0.00,,,0.00,0,Wunderground v.1.15,2013-02-22 07:30:00,
2013-02-22 01:35:00,53.3,28.9,29.79,NNW,338,3.0,3.0,39,0.00,,,0.00,0,Wunderground v.1.15,2013-02-22 07:35:00,
2013-02-22 01:40:00,53.3,29.6,29.79,NNW,338,2.0,2.0,40,0.00,,,0.00,0,Wunderground v.1.15,2013-02-22 07:40:00,
2013-02-22 01:45:00,53.3,29.6,29.80,NNW,338,2.0,2.0,40,0.00,,,0.00,0,Wunderground v.1.15,2013-02-22 07:45:00,
2013-02-22 01:50:00,53.4,29.7,29.80,NNW,338,1.0,1.0,40,0.00,,,0.00,0,Wunderground v.1.15,2013-02-22 07:50:00,
2013-02-22 02:00:00,53.3,29.6,29.79,NNW,338,0.0,0.0,40,0.00,,,0.00,0,Wunderground v.1.15,2013-02-22 08:00:00,
2013-02-22 02:05:00,53.2,30.1,29.79,NNW,338,0.0,0.0,41,0.00,,,0.00,0,Wunderground v.1.15,2013-02-22 08:05:00,
2013-02-22 02:10:00,53.1,30.0,29.79,NNW,338,0.0,0.0,41,0.00,,,0.00,0,Wunderground v.1.15,2013-02-22 08:10:00,
2013-02-22 02:15:00,52.9,30.4,29.79,NNW,338,0.0,0.0,42,0.00,,,0.00,0,Wunderground v.1.15,2013-02-22 08:15:00,
2013-02-22 02:20:00,52.8,30.3,29.79,NNW,338,0.0,0.0,42,0.00,,,0.00,0,Wunderground v.1.15,2013-02-22 08:20:00,
2013-02-22 02:25:00,52.7,30.2,29.79,NNW,338,0.0,0.0,42,0.00,,,0.00,0,Wunderground v.1.15,2013-02-22 08:25:00,
2013-02-22 02:30:00,52.5,29.5,29.79,NNW,338,1.0,4.0,41,0.00,,,0.00,0,Wunderground v.1.15,2013-02-22 08:30:00,
2013-02-22 02:35:00,52.6,28.9,29.79,NNW,339,2.0,4.0,40,0.00,,,0.00,0,Wunderground v.1.15,2013-02-22 08:35:00,
2013-02-22 02:40:00,53.0,29.3,29.79,NNW,339,2.0,2.0,40,0.00,,,0.00,0,Wunderground v.1.15,2013-02-22 08:40:00,
2013-02-22 02:50:00,53.6,30.4,29.79,NNW,339,0.0,0.0,41,0.00,,,0.00,0,Wunderground v.1.15,2013-02-22 08:50:00,
2013-02-22 02:55:00,53.8,30.6,29.79,NNW,338,0.0,0.0,41,0.00,,,0.00,0,Wunderground v.1.15,2013-02-22 08:55:00,
2013-02-22 03:00:00,53.8,30.6,29.79,NNW,339,0.0,0.0,41,0.00,,,0.00,0,Wunderground v.1.15,2013-02-22 09:00:00,
2013-02-22 03:05:00,53.7,30.5,29.79,NNW,338,0.0,0.0,41,0.00,,,0.00,0,Wunderground v.1.15,2013-02-22 09:05:00,
2013-02-22 03:10:00,53.6,30.4,29.79,NNW,339,0.0,0.0,41,0.00,,,0.00,0,Wunderground v.1.15,2013-02-22 09:10:00,
2013-02-22 03:15:00,53.3,29.6,29.79,NNW,339,0.0,0.0,40,0.00,,,0.00,0,Wunderground v.1.15,2013-02-22 09:15:00,
2013-02-22 03:20:00,52.9,29.8,29.79,NNW,338,0.0,0.0,41,0.00,,,0.00,0,Wunderground v.1.15,2013-02-22 09:20:00,
2013-02-22 03:25:00,52.5,29.5,29.79,NNW,338,0.0,0.0,41,0.00,,,0.00,0,Wunderground v.1.15,2013-02-22 09:25:00,
2013-02-22 03:35:00,52.0,29.6,29.80,NNW,339,0.0,0.0,42,0.00,,,0.00,0,Wunderground v.1.15,2013-02-22 09:35:00,
2013-02-22 03:40:00,51.8,30.0,29.80,NNW,339,0.0,0.0,43,0.00,,,0.00,0,Wunderground v.1.15,2013-02-22 09:40:00,
2013-02-22 03:45:00,51.7,29.9,29.81,NNW,339,0.0,0.0,43,0.00,,,0.00,0,Wunderground v.1.15,2013-02-22 09:45:00,
2013-02-22 03:50:00,51.7,30.5,29.81,NNW,339,0.0,0.0,44,0.00,,,0.00,0,Wunderground v.1.15,2013-02-22 09:50:00,
2013-02-22 03:55:00,51.7,31.0,29.81,NNW,339,0.0,0.0,45,0.00,,,0.00,0,Wunderground v.1.15,2013-02-22 09:55:00,
2013-02-22 04:00:00,51.6,30.9,29.81,NNW,339,0.0,0.0,45,0.00,,,0.00,0,Wunderground v.1.15,2013-02-22 10:00:00,
2013-02-22 04:10:00,51.4,30.7,29.81,NNW,338,0.0,0.0,45,0.00,,,0.00,0,Wunderground v.1.15,2013-02-22 10:10:00,
2013-02-22 04:15:00,51.3,31.2,29.82,NNW,338,0.0,0.0,46,0.00,,,0.00,0,Wunderground v.1.15,2013-02-22 10:15:00,
2013-02-22 04:20:00,51.3,31.2,29.82,NNW,338,0.0,0.0,46,0.00,,,0.00,0,Wunderground v.1.15,2013-02-22 10:20:00,
2013-02-22 04:25:00,51.2,31.1,29.82,NNW,339,0.0,0.0,46,0.00,,,0.00,0,Wunderground v.1.15,2013-02-22 10:25:00,
2013-02-22 04:30:00,51.2,31.1,29.82,NNW,339,0.0,0.0,46,0.00,,,0.00,0,Wunderground v.1.15,2013-02-22 10:30:00,
2013-02-22 04:35:00,51.1,30.5,29.82,NNW,338,0.0,1.0,45,0.00,,,0.00,0,Wunderground v.1.15,2013-02-22 10:35:00,
2013-02-22 04:40:00,51.1,29.9,29.82,NNW,338,1.0,1.0,44,0.00,,,0.00,0,Wunderground v.1.15,2013-02-22 10:40:00,
2013-02-22 04:45:00,51.0,30.9,29.82,NNW,338,1.0,2.0,46,0.00,,,0.00,0,Wunderground v.1.15,2013-02-22 10:45:00,
2013-02-22 04:50:00,51.0,30.9,29.82,NNW,338,1.0,3.0,46,0.00,,,0.00,0,Wunderground v.1.15,2013-02-22 10:50:00,
2013-02-22 04:55:00,51.1,30.5,29.82,NNW,338,2.0,3.0,45,0.00,,,0.00,0,Wunderground v.1.15,2013-02-22 10:55:00,
2013-02-22 05:00:00,51.2,30.0,29.82,NNW,338,2.0,2.0,44,0.00,,,0.00,0,Wunderground v.1.15,2013-02-22 11:00:00,
2013-02-22 05:05:00,51.4,30.7,29.82,NNW,339,2.0,2.0,45,0.00,,,0.00,0,Wunderground v.1.15,2013-02-22 11:05:00,
2013-02-22 05:10:00,51.6,30.9,29.82,NNW,339,2.0,2.0,45,0.00,,,0.00,0,Wunderground v.1.15,2013-02-22 11:10:00,
2013-02-22 05:15:00,52.3,31.0,29.83,NNE,23,4.0,7.0,44,0.00,,,0.00,0,Wunderground v.1.15,2013-02-22 11:15:00,
2013-02-22 05:25:00,53.7,31.1,29.83,NNE,33,6.0,6.0,42,0.00,,,0.00,0,Wunderground v.1.15,2013-02-22 11:25:00,
2013-02-22 05:30:00,54.1,31.5,29.83,NNE,22,7.0,7.0,42,0.00,,,0.00,0,Wunderground v.1.15,2013-02-22 11:30:00,
2013-02-22 05:35:00,54.3,32.3,29.83,North,360,7.0,11.0,43,0.00,,,0.00,0,Wunderground v.1.15,2013-02-22 11:35:00,
2013-02-22 05:40:00,54.2,32.7,29.83,NE,42,7.0,9.0,44,0.00,,,0.00,0,Wunderground v.1.15,2013-02-22 11:40:00,
2013-02-22 05:45:00,54.0,33.1,29.83,NNE,19,6.0,9.0,45,0.00,,,0.00,0,Wunderground v.1.15,2013-02-22 11:45:00,
2013-02-22 05:50:00,53.7,33.4,29.83,NE,36,6.0,10.0,46,0.00,,,0.00,0,Wunderground v.1.15,2013-02-22 11:50:00,
2013-02-22 05:55:00,53.5,33.7,29.83,North,11,7.0,10.0,47,0.00,,,0.00,0,Wunderground v.1.15,2013-02-22 11:55:00,
2013-02-22 06:00:00,53.3,34.6,29.84,NE,37,7.0,7.0,49,0.00,,,0.00,0,Wunderground v.1.15,2013-02-22 12:00:00,
2013-02-22 06:05:00,53.1,34.9,29.84,NNE,25,6.0,7.0,50,0.00,,,0.00,0,Wunderground v.1.15,2013-02-22 12:05:00,
2013-02-22 06:10:00,53.0,35.3,29.84,NNE,30,7.0,14.0,51,0.00,,,0.00,0,Wunderground v.1.15,2013-02-22 12:10:00,
2013-02-22 06:15:00,52.9,35.2,29.85,NNE,23,7.0,14.0,51,0.00,,,0.00,0,Wunderground v.1.15,2013-02-22 12:15:00,
2013-02-22 06:20:00,52.8,36.1,29.85,NNE,29,6.0,6.0,53,0.00,,,0.00,0,Wunderground v.1.15,2013-02-22 12:20:00,
2013-02-22 06:30:00,52.6,36.9,29.84,NNE,32,7.0,7.0,55,0.00,,,0.00,0,Wunderground v.1.15,2013-02-22 12:30:00,
2013-02-22 06:35:00,52.5,37.2,29.84,NNE,29,7.0,7.0,56,0.00,,,0.00,0,Wunderground v.1.15,2013-02-22 12:35:00,
2013-02-22 06:45:00,52.2,37.4,29.85,North,9,7.0,7.0,57,0.00,,,0.00,0,Wunderground v.1.15,2013-02-22 12:45:00,
2013-02-22 06:50:00,52.0,37.7,29.85,North,5,7.0,11.0,58,0.00,,,0.00,0,Wunderground v.1.15,2013-02-22 12:50:00,
2013-02-22 06:55:00,51.7,37.8,29.85,NNE,30,6.0,11.0,59,0.00,,,0.00,0,Wunderground v.1.15,2013-02-22 12:55:00,
2013-02-22 07:00:00,51.5,38.5,29.86,NNE,27,6.0,6.0,61,0.00,,,0.00,0,Wunderground v.1.15,2013-02-22 13:00:00,
2013-02-22 07:05:00,51.4,38.8,29.86,NNE,14,7.0,7.0,62,0.00,,,0.00,0,Wunderground v.1.15,2013-02-22 13:05:00,
2013-02-22 07:10:00,51.2,39.0,29.86,NNE,17,7.0,8.0,63,0.00,,,0.00,0,Wunderground v.1.15,2013-02-22 13:10:00,
2013-02-22 07:15:00,51.0,38.8,29.87,NNE,12,7.0,8.0,63,0.00,,,0.00,7,Wunderground v.1.15,2013-02-22 13:15:00,
2013-02-22 07:20:00,50.9,39.1,29.87,NNE,14,7.0,7.0,64,0.00,,,0.00,11,Wunderground v.1.15,2013-02-22 13:20:00,
2013-02-22 07:25:00,50.7,39.0,29.87,North,360,6.0,14.0,64,0.00,,,0.00,14,Wunderground v.1.15,2013-02-22 13:25:00,
2013-02-22 07:35:00,50.4,39.1,29.88,NNE,31,7.0,12.0,65,0.00,,,0.00,19,Wunderground v.1.15,2013-02-22 13:35:00,
2013-02-22 07:45:00,50.1,39.2,29.88,NNE,29,8.0,8.0,66,0.00,,,0.00,40,Wunderground v.1.15,2013-02-22 13:45:00,
2013-02-22 07:50:00,50.1,39.2,29.88,NNW,339,7.0,11.0,66,0.00,,,0.00,58,Wunderground v.1.15,2013-02-22 13:50:00,
2013-02-22 07:55:00,50.0,40.2,29.88,NNE,22,8.0,16.0,69,0.00,,,0.00,72,Wunderground v.1.15,2013-02-22 13:55:00,
2013-02-22 08:00:00,50.0,39.5,29.89,NNE,31,8.0,8.0,67,0.00,,,0.00,86,Wunderground v.1.15,2013-02-22 14:00:00,
2013-02-22 08:05:00,50.0,39.5,29.89,NNW,333,8.0,9.0,67,0.00,,,0.00,114,Wunderground v.1.15,2013-02-22 14:05:00,
2013-02-22 08:10:00,50.1,39.6,29.89,North,360,8.0,8.0,67,0.00,,,0.00,127,Wunderground v.1.15,2013-02-22 14:10:00,
2013-02-22 08:15:00,50.3,39.8,29.90,NNE,18,8.0,10.0,67,0.00,,,0.00,151,Wunderground v.1.15,2013-02-22 14:15:00,
2013-02-22 08:20:00,50.5,39.9,29.90,North,360,7.0,7.0,67,0.00,,,0.00,160,Wunderground v.1.15,2013-02-22 14:20:00,
2013-02-22 08:25:00,50.7,39.7,29.90,NNE,25,8.0,8.0,66,0.00,,,0.00,128,Wunderground v.1.15,2013-02-22 14:25:00,
2013-02-22 08:30:00,50.8,39.5,29.91,NE,52,9.0,10.0,65,0.00,,,0.00,135,Wunderground v.1.15,2013-02-22 14:30:00,
2013-02-22 08:35:00,50.8,39.8,29.91,NE,36,8.0,10.0,66,0.00,,,0.00,156,Wunderground v.1.15,2013-02-22 14:35:00,
2013-02-22 08:40:00,51.0,39.6,29.91,NE,48,8.0,13.0,65,0.00,,,0.00,165,Wunderground v.1.15,2013-02-22 14:40:00,
2013-02-22 08:45:00,51.1,39.7,29.91,NE,46,9.0,13.0,65,0.00,,,0.00,155,Wunderground v.1.15,2013-02-22 14:45:00,
2013-02-22 08:50:00,51.2,39.8,29.91,NNE,14,9.0,9.0,65,0.00,,,0.00,171,Wunderground v.1.15,2013-02-22 14:50:00,
2013-02-22 08:55:00,51.3,39.9,29.91,NE,48,8.0,10.0,65,0.00,,,0.00,176,Wunderground v.1.15,2013-02-22 14:55:00,
2013-02-22 09:00:00,51.4,39.6,29.93,NE,38,8.0,11.0,64,0.00,,,0.00,193,Wunderground v.1.15,2013-02-22 15:00:00,
2013-02-22 09:05:00,51.5,40.1,29.93,NE,40,9.0,11.0,65,0.00,,,0.00,216,Wunderground v.1.15,2013-02-22 15:05:00,
2013-02-22 09:10:00,51.7,40.7,29.93,NE,36,8.0,10.0,66,0.00,,,0.00,320,Wunderground v.1.15,2013-02-22 15:10:00,
2013-02-22 09:15:00,52.4,41.0,29.93,NE,44,6.0,10.0,65,0.00,,,0.00,251,Wunderground v.1.15,2013-02-22 15:15:00,
2013-02-22 09:20:00,52.5,40.3,29.93,NNE,23,6.0,6.0,63,0.00,,,0.00,220,Wunderground v.1.15,2013-02-22 15:20:00,
2013-02-22 09:25:00,52.2,40.0,29.93,NE,34,9.0,10.0,63,0.00,,,0.00,200,Wunderground v.1.15,2013-02-22 15:25:00,
2013-02-22 09:30:00,52.1,40.3,29.93,NNE,29,8.0,8.0,64,0.00,,,0.00,281,Wunderground v.1.15,2013-02-22 15:30:00,
2013-02-22 09:35:00,52.5,40.3,29.93,NNW,338,8.0,8.0,63,0.00,,,0.00,387,Wunderground v.1.15,2013-02-22 15:35:00,
2013-02-22 09:40:00,53.0,40.3,29.93,NE,56,7.0,8.0,62,0.00,,,0.00,376,Wunderground v.1.15,2013-02-22 15:40:00,
2013-02-22 09:45:00,53.2,40.5,29.93,NE,49,8.0,15.0,62,0.00,,,0.00,454,Wunderground v.1.15,2013-02-22 15:45:00,
2013-02-22 09:50:00,53.8,41.1,29.93,NNE,28,9.0,9.0,62,0.00,,,0.00,429,Wunderground v.1.15,2013-02-22 15:50:00,
2013-02-22 09:55:00,53.4,40.3,29.93,ENE,65,9.0,16.0,61,0.00,,,0.00,197,Wunderground v.1.15,2013-02-22 15:55:00,
2013-02-22 10:05:00,54.2,41.0,29.93,NNE,33,8.0,15.0,61,0.00,,,0.00,584,Wunderground v.1.15,2013-02-22 16:05:00,
2013-02-22 18:30:00,59.2,36.7,29.85,NE,36,7.0,7.0,43,0.00,,,0.00,0,Wunderground v.1.15,2013-02-23 00:30:00,
2013-02-22 18:40:00,59.0,36.5,29.85,ENE,71,5.0,6.0,43,0.00,,,0.00,0,Wunderground v.1.15,2013-02-23 00:40:00,
2013-02-22 18:50:00,59.0,36.5,29.86,ENE,67,8.0,8.0,43,0.00,,,0.00,0,Wunderground v.1.15,2013-02-23 00:50:00,
2013-02-22 18:55:00,58.7,36.8,29.86,ENE,57,8.0,10.0,44,0.00,,,0.00,0,Wunderground v.1.15,2013-02-23 00:55:00,
2013-02-22 19:00:00,58.4,36.6,29.86,NE,53,6.0,6.0,44,0.00,,,0.00,0,Wunderground v.1.15,2013-02-23 01:00:00,
2013-02-22 19:05:00,58.1,36.9,29.86,NE,52,5.0,7.0,45,0.00,,,0.00,0,Wunderground v.1.15,2013-02-23 01:05:00,
2013-02-22 19:10:00,57.8,36.6,29.86,NE,54,5.0,6.0,45,0.00,,,0.00,0,Wunderground v.1.15,2013-02-23 01:10:00,
2013-02-22 19:15:00,57.5,36.9,29.87,ENE,62,5.0,6.0,46,0.00,,,0.00,0,Wunderground v.1.15,2013-02-23 01:15:00,
2013-02-22 19:20:00,57.2,36.6,29.87,NE,54,5.0,5.0,46,0.00,,,0.00,0,Wunderground v.1.15,2013-02-23 01:20:00,
2013-02-22 19:30:00,56.6,36.6,29.88,ENE,63,5.0,5.0,47,0.00,,,0.00,0,Wunderground v.1.15,2013-02-23 01:30:00,
2013-02-22 19:35:00,56.4,36.4,29.88,NE,55,5.0,5.0,47,0.00,,,0.00,0,Wunderground v.1.15,2013-02-23 01:35:00,
2013-02-22 19:40:00,56.2,36.8,29.88,NE,55,5.0,9.0,48,0.00,,,0.00,0,Wunderground v.1.15,2013-02-23 01:40:00,
2013-02-22 19:45:00,56.0,36.6,29.89,NE,53,5.0,9.0,48,0.00,,,0.00,0,Wunderground v.1.15,2013-02-23 01:45:00,
2013-02-22 19:50:00,55.8,36.9,29.89,NE,43,5.0,7.0,49,0.00,,,0.00,0,Wunderground v.1.15,2013-02-23 01:50:00,
2013-02-22 19:55:00,55.6,36.7,29.89,NE,53,4.0,7.0,49,0.00,,,0.00,0,Wunderground v.1.15,2013-02-23 01:55:00,
2013-02-22 20:00:00,55.4,36.5,29.90,NE,51,4.0,4.0,49,0.00,,,0.00,0,Wunderground v.1.15,2013-02-23 02:00:00,
2013-02-22 20:05:00,55.3,37.0,29.90,NE,46,4.0,4.0,50,0.00,,,0.00,0,Wunderground v.1.15,2013-02-23 02:05:00,
2013-02-22 20:10:00,55.2,36.9,29.90,NE,46,4.0,4.0,50,0.00,,,0.00,0,Wunderground v.1.15,2013-02-23 02:10:00,
2013-02-22 20:15:00,55.1,36.8,29.90,NE,48,4.0,4.0,50,0.00,,,0.00,0,Wunderground v.1.15,2013-02-23 02:15:00,
2013-02-22 20:25:00,55.0,36.7,29.90,NE,42,3.0,3.0,50,0.00,,,0.00,0,Wunderground v.1.15,2013-02-23 02:25:00,
2013-02-22 20:30:00,54.9,36.6,29.90,NE,42,3.0,5.0,50,0.00,,,0.00,0,Wunderground v.1.15,2013-02-23 02:30:00,
2013-02-22 20:35:00,54.9,36.6,29.90,NE,42,3.0,5.0,50,0.00,,,0.00,0,Wunderground v.1.15,2013-02-23 02:35:00,
2013-02-22 20:40:00,54.8,36.5,29.90,NE,42,3.0,4.0,50,0.00,,,0.00,0,Wunderground v.1.15,2013-02-23 02:40:00,
2013-02-22 20:50:00,54.9,36.6,29.90,NNE,24,4.0,7.0,50,0.00,,,0.00,0,Wunderground v.1.15,2013-02-23 02:50:00,
2013-02-22 20:55:00,55.0,36.7,29.90,NE,37,5.0,7.0,50,0.00,,,0.00,0,Wunderground v.1.15,2013-02-23 02:55:00,
2013-02-22 21:00:00,55.0,36.7,29.91,NE,38,4.0,9.0,50,0.00,,,0.00,0,Wunderground v.1.15,2013-02-23 03:00:00,
2013-02-22 21:05:00,55.1,36.8,29.91,NE,39,4.0,9.0,50,0.00,,,0.00,0,Wunderground v.1.15,2013-02-23 03:05:00,
2013-02-22 21:15:00,55.2,36.9,29.92,NE,52,5.0,9.0,50,0.00,,,0.00,0,Wunderground v.1.15,2013-02-23 03:15:00,
2013-02-22 21:20:00,55.3,37.0,29.92,NE,42,5.0,5.0,50,0.00,,,0.00,0,Wunderground v.1.15,2013-02-23 03:20:00,
2013-02-22 21:25:00,55.3,37.0,29.92,NE,44,5.0,5.0,50,0.00,,,0.00,0,Wunderground v.1.15,2013-02-23 03:25:00,
2013-02-22 21:30:00,55.3,37.0,29.92,NE,42,5.0,5.0,50,0.00,,,0.00,0,Wunderground v.1.15,2013-02-23 03:30:00,
2013-02-22 21:35:00,55.2,36.9,29.92,NE,46,5.0,9.0,50,0.00,,,0.00,0,Wunderground v.1.15,2013-02-23 03:35:00,
2013-02-22 21:45:00,55.1,36.8,29.93,NE,45,6.0,6.0,50,0.00,,,0.00,0,Wunderground v.1.15,2013-02-23 03:45:00,
2013-02-22 21:55:00,54.8,37.0,29.93,NE,50,7.0,7.0,51,0.00,,,0.00,0,Wunderground v.1.15,2013-02-23 03:55:00,
2013-02-22 22:00:00,54.6,36.8,29.93,NE,40,8.0,10.0,51,0.00,,,0.00,0,Wunderground v.1.15,2013-02-23 04:00:00,
2013-02-22 22:05:00,54.4,36.6,29.93,NE,35,8.0,10.0,51,0.00,,,0.00,0,Wunderground v.1.15,2013-02-23 04:05:00,
2013-02-22 22:10:00,54.1,36.9,29.93,NNE,31,8.0,9.0,52,0.00,,,0.00,0,Wunderground v.1.15,2013-02-23 04:10:00,
2013-02-22 22:15:00,53.9,36.7,29.93,NNE,29,8.0,9.0,52,0.00,,,0.00,0,Wunderground v.1.15,2013-02-23 04:15:00,
2013-02-22 22:20:00,53.7,36.5,29.93,NNE,29,8.0,11.0,52,0.00,,,0.00,0,Wunderground v.1.15,2013-02-23 04:20:00,
2013-02-22 22:25:00,53.5,36.8,29.93,NE,36,7.0,11.0,53,0.00,,,0.00,0,Wunderground v.1.15,2013-02-23 04:25:00,
2013-02-22 22:30:00,53.3,36.6,29.93,NE,40,7.0,7.0,53,0.00,,,0.00,0,Wunderground v.1.15,2013-02-23 04:30:00,
2013-02-22 22:40:00,53.0,36.8,29.93,NE,55,6.0,12.0,54,0.00,,,0.00,0,Wunderground v.1.15,2013-02-23 04:40:00,
2013-02-22 22:45:00,52.9,36.2,29.93,NE,34,7.0,12.0,53,0.00,,,0.00,0,Wunderground v.1.15,2013-02-23 04:45:00,
2013-02-22 22:50:00,52.7,36.5,29.93,ENE,61,7.0,11.0,54,0.00,,,0.00,0,Wunderground v.1.15,2013-02-23 04:50:00,
2013-02-22 22:55:00,52.6,36.4,29.93,NNE,30,7.0,11.0,54,0.00,,,0.00,0,Wunderground v.1.15,2013-02-23 04:55:00,
2013-02-22 23:00:00,52.4,35.8,29.92,NE,41,8.0,8.0,53,0.00,,,0.00,0,Wunderground v.1.15,2013-02-23 05:00:00,
2013-02-22 23:05:00,52.3,35.7,29.92,NE,37,9.0,9.0,53,0.00,,,0.00,0,Wunderground v.1.15,2013-02-23 05:05:00,
2013-02-22 23:10:00,52.1,35.9,29.92,NE,40,7.0,7.0,54,0.00,,,0.00,0,Wunderground v.1.15,2013-02-23 05:10:00,
2013-02-22 23:15:00,51.9,35.8,29.93,NE,41,6.0,7.0,54,0.00,,,0.00,0,Wunderground v.1.15,2013-02-23 05:15:00,
2013-02-22 23:20:00,51.8,35.7,29.93,NE,36,7.0,12.0,54,0.00,,,0.00,0,Wunderground v.1.15,2013-02-23 05:20:00,
2013-02-22 23:25:00,51.5,34.9,29.93,NNE,28,7.0,12.0,53,0.00,,,0.00,0,Wunderground v.1.15,2013-02-23 05:25:00,
2013-02-22 23:30:00,51.4,35.3,29.93,NE,44,7.0,7.0,54,0.00,,,0.00,0,Wunderground v.1.15,2013-02-23 05:30:00,
2013-02-22 23:35:00,51.3,35.2,29.93,NE,41,7.0,7.0,54,0.00,,,0.00,0,Wunderground v.1.15,2013-02-23 05:35:00,
2013-02-22 23:45:00,51.0,34.9,29.93,NNE,31,7.0,7.0,54,0.00,,,0.00,0,Wunderground v.1.15,2013-02-23 05:45:00,
2013-02-22 23:50:00,50.8,34.7,29.93,NNE,33,6.0,6.0,54,0.00,,,0.00,0,Wunderground v.1.15,2013-02-23 05:50:00,